Lapse_Rate
2.4 2.2 2.2 2.3 2.3 2.6 2.9 2.9 3.6 3.7 4.0 4.2 4.3 4.3 4.2 3.6 3.4 3.5 4.1 3.6 3.5 4.4
2.3 2.5 2.4 2.3 2.0 2.2 2.7 4.0 4.0 4.0 3.7 3.8 3.9 4.0 3.9 3.2 3.2 3.3 3.5 4.1 4.3 3.8
2.1 2.0 2.0 2.2 2.7 3.1 3.4 3.7 3.9 3.7 3.6 3.6 3.7 3.8 3.7 3.4 3.6 3.4 3.6 4.2 3.3 3.6
1.6 1.9 2.4 3.1 3.5 3.6 4.0 4.1 3.8 3.9 3.7 3.5 3.5 3.7 3.3 3.2 3.7 3.8 3.7 3.9 4.2 4.0
1.8 2.3 2.4 3.8 4.3 4.6 4.1 4.8 4.6 4.3 4.2 4.1 3.9 3.8 3.5 3.8 4.5 4.3 4.2 4.3 4.6 4.3
2.2 2.4 3.2 3.7 4.5 4.4 4.2 4.4 4.5 5.2 4.6 4.6 4.7 4.6 4.4 4.4 4.4 4.5 4.4 4.5 4.7 4.7
2.4 1.9 2.8 3.7 3.6 3.9 3.0 3.0 4.0 4.4 4.4 4.8 4.9 5.4 5.4 5.9 5.4 5.1 5.2 5.3 5.3 4.9
4.6 3.5 2.5 3.6 3.4 3.1 3.3 2.7 3.3 3.7 4.0 4.3 4.9 5.9 5.9 6.7 6.3 6.0 5.7 5.6 5.7 5.9
5.5 5.8 5.3 3.7 2.6 2.3 3.0 2.8 1.9 2.8 3.2 4.0 5.6 7.2 9.4 9.1 7.7 7.0 6.6 6.6 7.1 6.6
5.9 5.9 5.5 5.0 4.0 2.9 1.6 1.3 2.5 2.1 3.0 3.0 4.3 7.0 9.3 9.2 8.3 7.6 7.0 6.3 6.8 7.7
5.8 5.2 4.9 4.5 4.3 3.2 1.9 0.9 1.8 2.7 3.0 3.2 4.7 7.6 9.4 9.2 8.3 7.5 7.5 7.3 7.0 6.8
4.7 4.3 4.4 3.8 3.3 3.1 2.0 2.5 1.9 3.3 3.6 2.6 3.6 7.1 8.5 9.2 7.8 7.8 7.3 7.3 7.2 7.2
4.1 3.1 2.3 2.7 2.3 2.9 2.3 3.8 4.7 4.7 4.3 4.9 5.4 6.8 8.2 9.1 8.0 6.6 7.4 7.7 7.6 8.4
3.6 2.5 2.6 1.9 2.0 2.2 3.3 4.7 3.6 4.9 4.8 3.5 4.0 3.7 7.9 9.4 8.3 7.4 7.2 7.2 7.6 7.7
Wind_Speed
5 3 3 3 2 1 1 2 4 4 4 6 5 6 7 4 3 4 3 5 4 4
5 4 3 3 2 1 2 4 6 5 6 7 7 7 7 3 4 4 4 5 6 6
5 4 3 2 3 4 4 6 6 6 7 6 7 7 6 4 4 5 4 5 5 6
4 4 3 3 4 4 5 7 5 6 5 5 5 6 5 5 6 7 7 7 7 9
4 3 2 4 5 7 5 8 7 7 5 5 5 5 5 6 6 6 8 8 8 10
5 5 5 5 6 5 5 5 6 6 5 6 6 6 6 7 8 8 9 9 9 11
5 5 5 5 5 5 4 5 5 5 5 6 6 8 8 9 9 9 10 11 11 11
5 5 4 5 5 4 4 4 4 4 5 5 6 7 7 10 10 10 11 10 12 12
4 4 5 4 4 3 4 4 3 4 4 6 7 14 18 16 8 9 11 11 11 9
4 4 3 3 4 4 4 3 4 5 5 6 7 16 18 19 9 8 8 8 9 10
3 2 2 3 4 3 3 3 4 5 6 6 8 17 18 19 10 8 9 9 9 10
2 2 3 4 4 4 3 3 4 5 6 6 8 18 18 16 8 8 9 9 9 9
1 2 3 4 4 3 3 5 5 7 6 11 9 17 19 15 7 6 7 9 9 17
2 3 4 4 2 3 5 5 5 7 7 7 8 10 18 18 8 6 7 7 7 7
Wind_Direction
152 165 171 172 171 186 237 263 285 280 269 287 288 291 289 277 273 265 256 264 263 264
157 168 175 159 137 222 265 267 254 254 268 274 280 276 276 265 267 266 260 258 257 255
167 164 152 157 215 224 248 252 262 262 260 263 267 267 263 255 253 253 259 267 248 251
157 155 173 202 228 232 238 243 250 252 255 254 251 252 247 246 255 254 254 251 257 260
146 151 177 223 230 234 234 242 246 254 256 258 251 244 244 250 267 254 259 257 252 258
183 180 212 227 234 232 236 242 254 256 253 262 265 263 250 251 255 255 253 254 248 252
190 188 210 226 228 228 227 239 249 249 256 265 271 277 270 265 259 255 256 252 248 248
184 190 212 224 227 232 225 239 251 262 263 267 274 272 254 249 251 253 255 255 258 253
190 202 216 218 210 215 247 256 243 271 262 276 281 282 285 285 270 253 256 260 261 246
203 217 222 224 229 241 250 235 272 267 267 267 270 285 287 286 281 269 259 254 263 268
192 211 259 266 264 246 238 250 270 275 272 273 279 288 292 289 283 275 268 263 261 263
154 252 279 283 285 282 266 282 265 268 271 263 275 291 293 295 286 282 273 270 260 259
206 245 265 278 276 266 240 270 276 277 265 271 282 290 292 290 276 269 274 274 261 274
279 268 265 262 236 258 270 274 273 280 277 264 266 273 291 290 284 270 274 273 271 268